sat.trackr.live / text

‹ back to catalog

STARLINK-33964

NORAD 64118 · 2025-110Y

PAYLOAD ACTIVE UNKNOWN

§ Identity

Operator
Country
US
Launch date
2025-05-23
Launch site
AFWTR
Launch vehicle
Mass (kg)
RCS (m²)

Purposes: comms

External: N2YO · Heavens-Above · Gunter

§ Orbital elements

Epoch: 2026-09-20T12:48:03.426336Z

Period
94.01 min
Inclination
53.1584°
Eccentricity
0.0000711
Mean motion
15.31723434 rev/d
Perigee alt
470.2 km
Apogee alt
471.2 km
Semi-major
6,848.8 km
B*
4.4910e-4
RAAN
200.3314°
Arg perigee
81.1070°
Mean anomaly
279.0012°
Rev number
7,573

§ Raw data

STARLINK-339641 64118U 25110Y   26263.53337299  .00013607  00000+0  44910-3 0  99962 64118  53.1584 200.3314 0000711  81.1070 279.0012 15.31723434 75733

JSON: /api/v1/satellites/64118 · /tle

For live sub-satellite position, see the globe view (requires WebGL).

§ Visibility from observer

Set your observer location to see the next 7 days of passes ≥ 10°. The values pass through the URL so the page stays shareable.

No JS? Fill the form by hand. The geolocation button needs JavaScript.